KUIPER-00134

导读 | 豆包AI

KUIPER-00134是美国2025年10月14日发射的卫星,隶属于亚马逊柯伊伯(Kuiper)项目。该项目旨在构建近地轨道卫星星座,为全球提供高速宽带互联网服务,填补偏远地区网络覆盖空白。KUIPER-00134作为星座组网的组成部分,将参与星座技术验证与服务部署,推动全球互联基础设施建设。

基本信息
目录编号:
65960
目录名称:
KUIPER-00134
国际标识:
2025-228P
轨道中心:
EARTH
卫星名称:
KUIPER-00134
卫星全名:
KUIPER-00134
卫星状态:
在轨 (已飞行140 天)
发射日期:
2025-10-14 UTC
国别 :
美国 (US)
星等 :
--
轨道信息
数据来源 国际轨道数据
星历时间: 2026-03-02T13:54:20+0800
22小时前
查看轨道信息
半长轴: 6829.291km
偏心率: 0.0004641
轨道倾角: 51.877°
近地点辐角 297.235°
升交点赤经 356.432°
平近点角 62.816°
近地点: 447.984km
远地点: 454.324km
周期: 93.610分钟
每日圈数: 15.382942
详细信息
使用方式:
暂无
2D轨道图
3D轨道图
轨道高度分析图
轨道倾角分析图
轨道综合分析图
查看轨道综合分析图